TimeCDT,TemperatureF,Dew PointF,Humidity,Sea Level PressureIn,VisibilityMPH,Wind Direction,Wind SpeedMPH,Gust SpeedMPH,PrecipitationIn,Events,Conditions,WindDirDegrees,DateUTC
12:51 AM,73.9,71.1,91,29.81,9.0,NNW,4.6,-,N/A,,Clear,330,2013-09-24 05:51:00
1:51 AM,73.0,71.1,93,29.80,7.0,NNW,3.5,-,N/A,,Clear,340,2013-09-24 06:51:00
2:51 AM,72.0,70.0,93,29.81,7.0,NW,6.9,-,N/A,,Clear,320,2013-09-24 07:51:00
3:51 AM,71.1,70.0,96,29.81,7.0,NW,4.6,-,N/A,,Clear,320,2013-09-24 08:51:00
4:51 AM,71.1,70.0,96,29.81,7.0,NW,8.1,-,N/A,,Scattered Clouds,320,2013-09-24 09:51:00
5:51 AM,71.1,70.0,96,29.81,8.0,NNW,4.6,-,N/A,,Clear,330,2013-09-24 10:51:00
6:51 AM,71.1,69.1,93,29.83,8.0,NNW,4.6,-,N/A,,Clear,340,2013-09-24 11:51:00
7:51 AM,71.1,69.1,93,29.85,6.0,NNW,6.9,-,N/A,,Clear,330,2013-09-24 12:51:00
8:51 AM,78.1,73.0,84,29.86,9.0,NNW,4.6,-,N/A,,Clear,330,2013-09-24 13:51:00
9:51 AM,82.9,73.9,74,29.88,10.0,NNW,6.9,-,N/A,,Clear,340,2013-09-24 14:51:00
10:51 AM,87.1,73.9,65,29.88,10.0,NNW,9.2,-,N/A,,Clear,340,2013-09-24 15:51:00
11:51 AM,89.1,73.0,59,29.88,10.0,North,9.2,-,N/A,,Clear,350,2013-09-24 16:51:00
12:51 PM,91.0,72.0,53,29.86,10.0,NNW,8.1,-,N/A,,Partly Cloudy,340,2013-09-24 17:51:00
1:51 PM,91.9,70.0,48,29.85,10.0,NNW,9.2,-,N/A,,Partly Cloudy,340,2013-09-24 18:51:00
2:51 PM,93.9,70.0,46,29.83,10.0,North,8.1,-,N/A,,Clear,10,2013-09-24 19:51:00
3:51 PM,93.9,69.1,44,29.81,10.0,North,10.4,-,N/A,,Clear,350,2013-09-24 20:51:00
4:51 PM,93.9,70.0,46,29.80,10.0,North,8.1,-,N/A,,Clear,10,2013-09-24 21:51:00
5:51 PM,91.9,69.1,47,29.79,10.0,NNE,5.8,-,N/A,,Clear,20,2013-09-24 22:51:00
6:51 PM,89.1,73.9,61,29.80,10.0,NNE,3.5,-,N/A,,Clear,20,2013-09-24 23:51:00
7:51 PM,82.9,73.0,72,29.81,10.0,East,3.5,-,N/A,,Clear,90,2013-09-25 00:51:00
8:51 PM,80.1,71.1,74,29.83,10.0,Calm,Calm,-,N/A,,Clear,0,2013-09-25 01:51:00
9:51 PM,77.0,72.0,84,29.84,10.0,Calm,Calm,-,N/A,,Clear,0,2013-09-25 02:51:00
10:51 PM,75.9,71.1,85,29.85,10.0,NNW,3.5,-,N/A,,Clear,330,2013-09-25 03:51:00
11:51 PM,75.0,71.1,87,29.85,10.0,North,4.6,-,N/A,,Clear,360,2013-09-25 04:51:00